Bookmark and Share
Track history (hours):
 

Uraga Maru

Last reported at 2014-Apr-24 13:09 UTC. Time now 2014-Apr-24 13:51 UTC.
Position N 35°17' E 139°41'.

Length 40 m; draft 2.8 m.

Type: Tug. MMSI: 431101119.

NotesDate/timePositionNaut miles runAvg speedWind from/ knotsBaromVisibWave heightAir tempDewpointWater temp
2014-Apr-24 13:09N 35°17' E 139°41'0 0.0
2014-Apr-24 12:30N 35°17' E 139°41'0 0.0
2014-Apr-24 11:33N 35°17' E 139°41'0 0.0
2014-Apr-24 10:33N 35°17' E 139°41'0 0.0
2014-Apr-24 09:32N 35°17' E 139°41'0 0.0
2014-Apr-24 08:33N 35°17' E 139°41'0 0.0
2014-Apr-24 07:30N 35°17' E 139°41'0 0.0
2014-Apr-24 06:30N 35°17' E 139°41'0 0.0
2014-Apr-24 05:33N 35°17' E 139°41'0 0.0
2014-Apr-24 04:32N 35°17' E 139°41'0 0.0
2014-Apr-24 03:32N 35°17' E 139°41'0 0.0
2014-Apr-24 02:31N 35°17' E 139°41'0 0.0
2014-Apr-24 01:21N 35°17' E 139°41'4 5.7
2014-Apr-24 00:33N 35°21' E 139°42'8 8.0
2014-Apr-23 23:33N 35°15' E 139°47'2 2.3
2014-Apr-23 22:33N 35°13' E 139°45'1 0.8
2014-Apr-23 21:33N 35°13' E 139°44'8 8.3
2014-Apr-23 20:34N 35°21' E 139°42'4 4.2
2014-Apr-23 19:33N 35°17' E 139°41'0 0.1
2014-Apr-23 18:32N 35°17' E 139°41'0 0.0
2014-Apr-23 17:33N 35°17' E 139°41'0 0.0
2014-Apr-23 16:33N 35°17' E 139°41'0 0.0
2014-Apr-23 15:27N 35°17' E 139°41'0 0.0
2014-Apr-23 14:33N 35°17' E 139°41'6 6.2
2014-Apr-23 13:33N 35°13' E 139°46'1211.7
2014-Apr-23 12:34N 35°25' E 139°44'6 5.5
2014-Apr-23 11:34N 35°21' E 139°49'4 3.8
2014-Apr-23 10:33N 35°24' E 139°46'4 4.2
2014-Apr-23 09:34N 35°26' E 139°42'0 0.0
2014-Apr-23 08:33N 35°26' E 139°42'0 0.0
2014-Apr-23 07:33N 35°26' E 139°42'0 0.0
2014-Apr-23 06:33N 35°26' E 139°42'0 0.0
2014-Apr-23 05:33N 35°26' E 139°42'0 0.0
2014-Apr-23 04:33N 35°26' E 139°42'0 0.0
2014-Apr-23 03:34N 35°26' E 139°42'0 0.0
2014-Apr-23 02:33N 35°26' E 139°42'1010.0
2014-Apr-23 01:33N 35°30' E 139°53'8 7.8
2014-Apr-23 00:33N 35°24' E 139°46'1110.9
2014-Apr-22 23:33N 35°14' E 139°47'1 1.3
2014-Apr-22 22:33N 35°14' E 139°45'5 5.0
2014-Apr-22 21:33N 35°17' E 139°41'0 0.0
2014-Apr-22 20:33N 35°17' E 139°41'0 0.0
2014-Apr-22 19:33N 35°17' E 139°41'0 0.0
2014-Apr-22 18:33N 35°17' E 139°41'0 0.0
2014-Apr-22 17:33N 35°17' E 139°41'0 0.0
2014-Apr-22 16:34N 35°17' E 139°41'0 0.0
2014-Apr-22 15:33N 35°17' E 139°41'0 0.0
2014-Apr-22 14:33N 35°17' E 139°41'0 0.0
2014-Apr-22 13:33N 35°17' E 139°41'0 0.0
2014-Apr-22 12:33N 35°17' E 139°41'0 0.0
2014-Apr-22 11:33N 35°17' E 139°41'0 0.0
2014-Apr-22 10:33N 35°17' E 139°41'0 0.0
2014-Apr-22 09:33N 35°17' E 139°41'0 0.0
2014-Apr-22 08:33N 35°17' E 139°41'0 0.0
2014-Apr-22 07:33N 35°17' E 139°41'0 0.0
2014-Apr-22 06:33N 35°17' E 139°41'0 0.0
2014-Apr-22 05:33N 35°17' E 139°41'0 0.0
2014-Apr-22 04:34N 35°17' E 139°41'0 0.0
2014-Apr-22 03:33N 35°17' E 139°41'0 0.0
2014-Apr-22 02:33N 35°17' E 139°41'0 0.0
2014-Apr-22 01:33N 35°17' E 139°41'0 0.0
2014-Apr-22 00:33N 35°17' E 139°41'0 0.0
2014-Apr-21 23:33N 35°17' E 139°41'0 0.1
2014-Apr-21 22:33N 35°17' E 139°41'7 6.6
2014-Apr-21 21:33N 35°23' E 139°44'6 6.3
2014-Apr-21 20:33N 35°17' E 139°46'7 6.7
2014-Apr-21 19:33N 35°10' E 139°47'4 4.4
2014-Apr-21 18:33N 35°13' E 139°43'0 0.0
2014-Apr-21 17:33N 35°13' E 139°43'0 0.0
2014-Apr-21 16:33N 35°13' E 139°43'0 0.0
2014-Apr-21 15:32N 35°13' E 139°43'0 0.0
2014-Apr-21 14:33N 35°13' E 139°43'0 0.0
2014-Apr-21 13:33N 35°13' E 139°43'0 0.0
2014-Apr-21 12:33N 35°13' E 139°43'4 4.3
2014-Apr-21 11:33N 35°17' E 139°45'7 6.8
2014-Apr-21 10:34N 35°24' E 139°44'0 0.2
2014-Apr-21 09:34N 35°24' E 139°44'0 0.0
2014-Apr-21 08:34N 35°24' E 139°44'0 0.0
2014-Apr-21 07:34N 35°24' E 139°44'9 9.1
2014-Apr-21 06:33N 35°15' E 139°47'3 2.9
2014-Apr-21 05:33N 35°12' E 139°48'1 1.2
2014-Apr-21 04:33N 35°12' E 139°46'10 9.9
2014-Apr-21 03:33N 35°22' E 139°42'8 8.0
2014-Apr-21 02:34N 35°29' E 139°47'2 1.8
2014-Apr-21 01:33N 35°27' E 139°46'1111.0
2014-Apr-21 00:33N 35°17' E 139°41'0 0.2
2014-Apr-20 23:34N 35°17' E 139°41'0 0.0
2014-Apr-20 22:33N 35°17' E 139°41'0 0.0
2014-Apr-20 21:33N 35°17' E 139°41'0 0.0
2014-Apr-20 20:33N 35°17' E 139°41'0 0.0
2014-Apr-20 19:33N 35°17' E 139°41'0 0.0
2014-Apr-20 18:33N 35°17' E 139°41'0 0.0
2014-Apr-20 17:32N 35°17' E 139°41'0 0.0
2014-Apr-20 16:33N 35°17' E 139°41'0 0.0
2014-Apr-20 15:33N 35°17' E 139°41'0 0.0
2014-Apr-20 14:33N 35°17' E 139°41'0 0.0
2014-Apr-20 13:33N 35°17' E 139°41'0 0.0
2014-Apr-20 12:33N 35°17' E 139°41'0 0.0
2014-Apr-20 11:34N 35°17' E 139°41'0 0.0
2014-Apr-20 10:33N 35°17' E 139°41'0 0.0
2014-Apr-20 09:33N 35°17' E 139°41'0 0.0
2014-Apr-20 08:33N 35°17' E 139°41'0 0.0
2014-Apr-20 07:33N 35°17' E 139°41'0 0.0
2014-Apr-20 06:33N 35°17' E 139°41'0 0.0
2014-Apr-20 05:33N 35°17' E 139°41'0 0.0
2014-Apr-20 04:33N 35°17' E 139°41'0 0.0
2014-Apr-20 03:33N 35°17' E 139°41'7 6.7
2014-Apr-20 02:33N 35°12' E 139°46'1212.4
2014-Apr-20 01:33N 35°24' E 139°43'1312.7
2014-Apr-20 00:33N 35°29' E 139°57'1 0.7
2014-Apr-19 23:33N 35°29' E 139°58'5 5.0
2014-Apr-19 22:33N 35°28' E 139°52'1010.1
2014-Apr-19 21:33N 35°20' E 139°44'1010.3
2014-Apr-19 20:33N 35°10' E 139°47'7 7.3
2014-Apr-19 19:33N 35°17' E 139°44'2 2.5
2014-Apr-19 18:33N 35°17' E 139°41'0 0.0
2014-Apr-19 17:33N 35°17' E 139°41'0 0.0
2014-Apr-19 16:33N 35°17' E 139°41'0 0.0
2014-Apr-19 15:33N 35°17' E 139°41'0 0.0
2014-Apr-19 14:33N 35°17' E 139°41'0 0.0
2014-Apr-19 13:33N 35°17' E 139°41'0 0.0
2014-Apr-19 12:34N 35°17' E 139°41'0 0.0
2014-Apr-19 11:33N 35°17' E 139°41'0 0.0
2014-Apr-19 10:33N 35°17' E 139°41'0 0.0
2014-Apr-19 09:33N 35°17' E 139°41'0 0.0
2014-Apr-19 08:33N 35°17' E 139°41'0 0.0
2014-Apr-19 07:33N 35°17' E 139°41'0 0.0
2014-Apr-19 06:33N 35°17' E 139°41'7 6.9
2014-Apr-19 05:33N 35°12' E 139°46'1111.1
2014-Apr-19 04:33N 35°22' E 139°42'1313.2
2014-Apr-19 03:33N 35°30' E 139°56'2 1.6
2014-Apr-19 02:33N 35°29' E 139°58'1 1.0
2014-Apr-19 01:33N 35°28' E 139°56'0 0.0
2014-Apr-19 00:33N 35°28' E 139°56'4 4.1
2014-Apr-18 23:33N 35°26' E 139°52'9 8.9
2014-Apr-18 22:33N 35°20' E 139°44'1010.4
2014-Apr-18 21:34N 35°10' E 139°47'9 8.5
2014-Apr-18 20:33N 35°18' E 139°43'2 2.1
2014-Apr-18 19:33N 35°17' E 139°41'0 0.0
2014-Apr-18 18:33N 35°17' E 139°41'0 0.0
2014-Apr-18 17:33N 35°17' E 139°41'0 0.0
2014-Apr-18 16:30N 35°17' E 139°41'0 0.0
2014-Apr-18 15:33N 35°17' E 139°41'0 0.0
2014-Apr-18 14:29N 35°17' E 139°41'0 0.0
2014-Apr-18 13:17N 35°17' E 139°41'0 0.0
2014-Apr-18 11:32N 35°17' E 139°41'0 0.0
2014-Apr-18 10:33N 35°17' E 139°41'0 0.0
2014-Apr-18 09:30N 35°17' E 139°41'0 0.0
2014-Apr-18 08:32N 35°17' E 139°41'0 0.0
2014-Apr-18 07:33N 35°17' E 139°41'0 0.0
2014-Apr-18 06:32N 35°17' E 139°41'2 2.1
2014-Apr-18 05:33N 35°17' E 139°43'2 1.5
2014-Apr-18 04:33N 35°19' E 139°43'1 0.9
2014-Apr-18 03:34N 35°18' E 139°43'2 1.6
2014-Apr-18 02:34N 35°17' E 139°45'1010.4
2014-Apr-18 01:34N 35°27' E 139°44'4 3.8
2014-Apr-18 00:34N 35°24' E 139°43'7 6.9
2014-Apr-17 23:33N 35°17' E 139°41'0 0.0
2014-Apr-17 22:32N 35°17' E 139°41'0 0.0
2014-Apr-17 21:33N 35°17' E 139°41'0 0.0
2014-Apr-17 20:34N 35°17' E 139°41'0 0.0
2014-Apr-17 19:34N 35°17' E 139°41'0 0.0
2014-Apr-17 18:33N 35°17' E 139°41'0 0.0
2014-Apr-17 17:34N 35°17' E 139°41'0 0.0
2014-Apr-17 16:34N 35°17' E 139°41'0 0.0
2014-Apr-17 15:33N 35°17' E 139°41'0 0.0
2014-Apr-17 14:34N 35°17' E 139°41'0 0.0
2014-Apr-17 13:34N 35°17' E 139°41'0 0.0
2014-Apr-17 12:33N 35°17' E 139°41'0 0.0
2014-Apr-17 11:33N 35°17' E 139°41'0 0.0
2014-Apr-17 10:33N 35°17' E 139°41'0 0.0
2014-Apr-17 09:33N 35°17' E 139°41'0 0.1
2014-Apr-17 08:34N 35°17' E 139°41'2 2.0
2014-Apr-17 07:33N 35°19' E 139°42'2 2.0
2014-Apr-17 06:33N 35°17' E 139°41'4 4.1
2014-Apr-17 05:33N 35°15' E 139°45'4 4.3
2014-Apr-17 04:33N 35°19' E 139°43'1111.3
2014-Apr-17 03:33N 35°29' E 139°51'6 5.9
2014-Apr-17 02:33N 35°29' E 139°58'1 1.3
2014-Apr-17 01:33N 35°28' E 139°56'5 4.8
2014-Apr-17 00:33N 35°26' E 139°51'6 5.9
2014-Apr-16 23:33N 35°22' E 139°45'1110.7
2014-Apr-16 22:34N 35°12' E 139°47'5 4.8
2014-Apr-16 21:33N 35°16' E 139°45'6 0.5
2014-Apr-16 08:31N 35°22' E 139°42'4 3.8
2014-Apr-16 07:34N 35°19' E 139°44'7 7.3
2014-Apr-16 06:33N 35°12' E 139°47'1 1.0
2014-Apr-16 05:33N 35°13' E 139°46'1211.4
2014-Apr-16 04:31N 35°24' E 139°43'1313.1
2014-Apr-16 03:33N 35°32' E 139°56'8 7.9
2014-Apr-16 02:33N 35°35' E 140°04'8 7.7
2014-Apr-16 01:33N 35°30' E 139°57'1512.9
2014-Apr-16 00:24N 35°20' E 139°44'4 4.2
2014-Apr-15 23:27N 35°17' E 139°41'0 0.0
2014-Apr-15 22:33N 35°17' E 139°41'0 0.0
2014-Apr-15 21:33N 35°17' E 139°41'0 0.0
2014-Apr-15 20:33N 35°17' E 139°41'0 0.0
2014-Apr-15 19:33N 35°17' E 139°41'0 0.0
2014-Apr-15 18:33N 35°17' E 139°41'0 0.0
2014-Apr-15 17:34N 35°17' E 139°41'0 0.0
2014-Apr-15 16:33N 35°17' E 139°41'0 0.0
2014-Apr-15 15:34N 35°17' E 139°41'0 0.0
2014-Apr-15 14:33N 35°17' E 139°41'0 0.0
2014-Apr-15 12:33N 35°17' E 139°41'0 0.0
2014-Apr-15 11:33N 35°17' E 139°41'0 0.0
2014-Apr-15 10:34N 35°17' E 139°41'0 0.0
2014-Apr-15 09:34N 35°17' E 139°41'0 0.0
2014-Apr-15 08:34N 35°17' E 139°41'0 0.0
2014-Apr-15 07:34N 35°17' E 139°41'0 0.0
2014-Apr-15 06:34N 35°17' E 139°41'0 0.0
2014-Apr-15 05:33N 35°17' E 139°41'0 0.0
2014-Apr-15 03:33N 35°17' E 139°41'0 0.0
2014-Apr-15 02:34N 35°17' E 139°41'0 0.0
2014-Apr-15 01:32N 35°17' E 139°41'0 0.0
2014-Apr-15 00:34N 35°17' E 139°41'0 0.0
2014-Apr-14 23:33N 35°17' E 139°41'0 0.0
2014-Apr-14 22:32N 35°17' E 139°41'0 0.0
2014-Apr-14 21:33N 35°17' E 139°41'4 3.6
2014-Apr-14 20:33N 35°16' E 139°45'4 3.6
2014-Apr-14 19:34N 35°19' E 139°43'3 3.2
2014-Apr-14 18:34N 35°22' E 139°43'1211.7
2014-Apr-14 17:33N 35°11' E 139°47'4 4.0
2014-Apr-14 16:34N 35°13' E 139°43'0 0.1
2014-Apr-14 15:33N 35°13' E 139°43'0 0.0
2014-Apr-14 14:34N 35°13' E 139°43'0 0.0
2014-Apr-14 13:34N 35°13' E 139°43'  

Dump ship's entire track history

sailing weather and tide predictions

Uraga Maru — JD2163 — position and weather